This is the latest recevied weather packets stored in our database for station/object W5MAI. If no packets are shown the sender has not sent any weather packets the latest 10 day(s).
| Time | Temp. | Humidity | Pressure | Rain* | Wind** | Luminosity | Snow |
|---|---|---|---|---|---|---|---|
| 1777845814 | 25° C | 40% | 1019.6 hPa | 0 mm | - | 380 W/m² | - |
| 1777845229 | 25° C | 41% | 1019.8 hPa | 0 mm | - | 677 W/m² | - |
| 1777844656 | 25° C | 38% | 1020.2 hPa | 0 mm | - | 636 W/m² | - |
| 1777844024 | 25° C | 40% | 1020.3 hPa | 0 mm | - | 671 W/m² | - |
| 1777843443 | 25° C | 39% | 1020.4 hPa | 0 mm | - | 703 W/m² | - |
| 1777842811 | 25° C | 39% | 1020.4 hPa | 0 mm | - | 733 W/m² | - |
| 1777842235 | 25° C | 39% | 1020.8 hPa | 0 mm | - | 751 W/m² | - |
| 1777841603 | 25° C | 41% | 1020.9 hPa | 0 mm | - | 675 W/m² | - |
| 1777840431 | 25° C | 41% | 1021.3 hPa | 0 mm | - | 812 W/m² | - |
| 1777839858 | 25° C | 41% | 1021.5 hPa | 0 mm | - | 842 W/m² | - |
| 1777839207 | 25° C | 41% | 1021.7 hPa | 0 mm | - | 802 W/m² | - |
| 1777838638 | 25° C | 43% | 1021.8 hPa | 0 mm | - | 768 W/m² | - |
| 1777838059 | 24.44° C | 40% | 1021.8 hPa | 0 mm | - | 754 W/m² | - |
| 1777836823 | 25° C | 44% | 1022.2 hPa | 0 mm | - | 921 W/m² | - |
| 1777836238 | 24.44° C | 44% | 1022.3 hPa | 0 mm | - | 930 W/m² | - |
| 1777835657 | 23.89° C | 38% | 1022.5 hPa | 0 mm | - | 942 W/m² | - |
| 1777834424 | 23.89° C | 44% | 1022.7 hPa | 0 mm | - | 954 W/m² | - |
| 1777833831 | 23.89° C | 44% | 1023.2 hPa | 0 mm | - | 962 W/m² | - |
| 1777833203 | 23.89° C | 43% | 1023.2 hPa | 0 mm | - | 947 W/m² | - |
| 1777832631 | 23.89° C | 41% | 1023.6 hPa | 0 mm | - | 958 W/m² | - |
| 1777832057 | 23.89° C | 39% | 1023.6 hPa | 0 mm | - | 946 W/m² | - |
| 1777830229 | 23.33° C | 41% | 1024.1 hPa | 0 mm | - | 930 W/m² | - |
| 1777829660 | 23.33° C | 42% | 1024.3 hPa | 0 mm | - | 925 W/m² | - |
| 1777829029 | 23.33° C | 43% | 1024.5 hPa | 0 mm | - | 900 W/m² | - |
| 1777828457 | 23.33° C | 44% | 1024.6 hPa | 0 mm | - | 895 W/m² | - |
* Rain latest hour (hover to see other rain measurements)
** Current wind speed in m/s (hover to see current wind gust speed)